DW1996 Weather Reports


Display with metric or nautical units.
time (UTC)temp
F
wind
direction
speed
MPH
gust
MPH
rain 1hr
in
rain 24hr
in
rain mn
in
humidity
%
barometer
mb
20260502163022 62 327 7.0 17.0 0.00 0.01 0.01 88 1018.4
20260502161518 62 344 14.0 19.0 0.00 0.01 0.01 87 1018.3
20260502151537 61 316 7.0 16.0 0.00 0.01 0.01 89 1018.0
20260502130104 61 355 12.0 20.0 0.00 0.01 0.01 91 1016.1
20260502123049 62 337 9.0 16.0 0.01 0.01 0.01 91 1015.4
20260502121546 62 343 7.0 16.0 0.01 0.01 0.01 91 1015.1
20260502114540 63 344 13.0 21.0 0.01 0.01 0.01 91 1014.3
20260502113136 63 22 13.0 20.0 0.00 0.00 0.00 91 1014.0
20260502111535 63 335 14.0 22.0 0.00 0.00 0.00 91 1013.7
20260502110035 63 355 14.0 22.0 0.00 0.00 0.00 90 1013.5
20260502104527 64 350 12.0 20.0 0.00 0.00 0.00 91 1013.4
20260502103024 64 5 12.0 22.0 0.00 0.00 0.00 90 1013.1
20260502101525 64 360 12.0 21.0 0.00 0.00 0.00 90 1013.1
20260502091512 64 333 9.0 18.0 0.00 0.00 0.00 90 1012.4
20260502070110 66 346 17.0 27.0 0.00 0.00 0.00 90 1011.3
20260502064613 67 338 19.0 28.0 0.00 0.00 0.00 90 1011.3
20260502063055 67 355 17.0 25.0 0.00 0.00 0.00 90 1011.1
20260502061553 67 344 17.0 24.0 0.00 0.00 0.00 90 1011.3
20260502060049 68 340 14.0 23.0 0.00 0.00 0.00 89 1011.2
20260502054647 69 360 14.0 21.0 0.00 0.00 0.00 88 1011.3
20260502053043 72 19 26.0 36.0 0.00 0.00 0.00 87 1011.0
20260502051540 73 360 23.0 34.0 0.00 0.00 0.00 86 1010.9
20260502050042 74 9 22.0 33.0 0.00 0.00 0.00 83 1010.7
20260502044535 74 346 24.0 34.0 0.00 0.00 0.00 82 1010.6
20260502043034 74 349 22.0 31.0 0.00 0.00 0.00 82 1010.4
20260502041532 75 5 24.0 32.0 0.00 0.00 0.00 82 1010.4
20260502040030 74 360 22.0 31.0 0.00 0.00 0.00 82 1010.0
20260502034528 74 24 22.0 32.0 0.00 0.00 0.00 82 1009.6
20260502033029 75 27 19.0 30.0 0.00 0.00 0.00 82 1009.3
20260502031523 75 22 20.0 35.0 0.00 0.00 0.00 82 1009.0
20260502030021 74 26 23.0 32.0 0.00 0.00 0.00 81 1008.7
20260502024519 75 27 25.0 38.0 0.00 0.00 0.00 82 1008.4
20260502023017 75 348 24.0 33.0 0.00 0.00 0.00 83 1008.2
20260502021515 75 9 25.0 37.0 0.00 0.00 0.00 83 1007.9
20260502020013 74 17 26.0 36.0 0.00 0.00 0.00 84 1007.6
20260502014515 74 11 24.0 32.0 0.00 0.00 0.00 84 1007.2
20260502013009 74 5 26.0 32.0 0.00 0.00 0.00 84 1006.8
20260502011507 73 342 16.0 23.0 0.00 0.00 0.00 83 1006.7
20260502010008 73 355 20.0 26.0 0.00 0.00 0.00 83 1006.4
20260502004503 74 346 18.0 25.0 0.00 0.00 0.00 83 1006.0
20260502003100 75 343 19.0 29.0 0.00 0.00 0.00 82 1005.8
20260502001631 77 11 18.0 26.0 0.00 0.00 0.00 80 1005.4
20260502000113 77 355 18.0 25.0 0.00 0.00 0.00 80 1005.1
20260501234552 79 9 17.0 26.0 0.00 0.00 0.00 80 1004.5
20260501233050 82 355 19.0 30.0 0.00 0.00 0.00 76 1003.9
20260501231549 85 345 8.0 15.0 0.00 0.00 0.00 74 1003.5
20260501230052 86 266 5.0 12.0 0.00 0.00 0.00 72 1003.2
20260501224605 87 190 7.0 13.0 0.00 0.00 0.00 71 1002.6
20260501223046 88 149 6.0 12.0 0.00 0.00 0.00 69 1002.5
20260501221547 88 201 5.0 13.0 0.00 0.00 0.00 69 1002.5
20260501220045 88 192 6.0 15.0 0.00 0.00 0.00 68 1002.4
20260501214545 88 189 6.0 13.0 0.00 0.00 0.00 68 1002.2
20260501213046 88 167 7.0 13.0 0.00 0.00 0.00 68 1002.3
20260501211543 89 159 10.0 17.0 0.00 0.00 0.00 67 1002.3
20260501210040 89 169 7.0 18.0 0.00 0.00 0.00 66 1002.5
20260501204539 90 147 6.0 12.0 0.00 0.00 0.00 64 1002.8
20260501203038 90 178 8.0 12.0 0.00 0.00 0.00 64 1003.2
20260501201535 90 136 6.0 17.0 0.00 0.00 0.00 65 1003.3
20260501200041 89 150 8.0 14.0 0.00 0.00 0.00 65 1003.5
20260501194535 89 144 9.0 15.0 0.00 0.00 0.00 66 1003.7
20260501193031 88 169 10.0 16.0 0.00 0.00 0.00 65 1004.0
20260501191524 89 167 8.0 18.0 0.00 0.00 0.00 65 1004.3
20260501190033 88 178 10.0 16.0 0.00 0.00 0.00 64 1004.5
20260501184520 88 191 11.0 16.0 0.00 0.00 0.00 64 1004.8
20260501183024 88 146 12.0 20.0 0.00 0.00 0.00 65 1004.7
20260501181517 88 198 9.0 17.0 0.00 0.00 0.00 66 1005.0
20260501180016 88 137 11.0 18.0 0.00 0.00 0.00 63 1005.4
20260501174514 88 107 9.0 21.0 0.00 0.00 0.00 65 1005.5
20260501173011 86 177 10.0 20.0 0.00 0.00 0.00 68 1005.9
20260501171510 86 156 10.0 21.0 0.00 0.00 0.00 67 1006.3